EW2607 Weather Reports


Display with metric or nautical units.
time (UTC)temp
F
wind
direction
speed
MPH
gust
MPH
rain 1hr
in
rain 24hr
in
rain mn
in
humidity
%
barometer
mb
20181215162000 53 124 0.0 1.0 0.00 0.00 0.00 51 1018.8
20181215161501 52 124 0.0 1.0 0.00 0.00 0.00 48 1018.7
20181215161001 52 0 0.0 0.0 0.00 0.00 0.00 53 1018.6
20181215160500 51 0 0.0 0.0 0.00 0.00 0.00 50 1018.5
20181215160002 51 0 0.0 2.0 0.00 0.00 0.00 49 1018.4
20181215155501 51 0 0.0 2.0 0.00 0.00 0.00 45 1018.3
20181215154958 50 0 1.0 2.0 0.00 0.00 0.00 44 1018.2
20181215154458 49 0 2.0 3.0 0.00 0.00 0.00 43 1018.1
20181215153958 49 0 2.0 3.0 0.00 0.00 0.00 43 1018.0
20181215153459 48 0 1.0 3.0 0.00 0.00 0.00 42 1018.0
20181215152959 48 0 1.0 3.0 0.00 0.00 0.00 43 1018.1
20181215152458 48 0 1.0 3.0 0.00 0.00 0.00 42 1018.0
20181215151959 47 0 0.0 2.0 0.00 0.00 0.00 42 1018.0
20181215151458 47 0 1.0 3.0 0.00 0.00 0.00 41 1018.0
20181215150958 47 0 1.0 3.0 0.00 0.00 0.00 41 1018.1
20181215150459 47 0 1.0 3.0 0.00 0.00 0.00 41 1018.0
20181215145956 47 355 1.0 3.0 0.00 0.00 0.00 42 1018.1
20181215145458 47 26 1.0 3.0 0.00 0.00 0.00 40 1018.1
20181215144955 47 0 1.0 3.0 0.00 0.00 0.00 40 1018.0
20181215144501 47 24 0.0 2.0 0.00 0.00 0.00 42 1018.0
20181215144456 47 11 0.0 1.0 0.00 0.00 0.00 41 1018.0
20181215143456 47 9 1.0 3.0 0.00 0.00 0.00 42 1018.0
20181215142956 46 355 2.0 3.0 0.00 0.00 0.00 42 1018.0
20181215142454 46 0 2.0 3.0 0.00 0.00 0.00 42 1017.9
20181215141955 46 0 2.0 3.0 0.00 0.00 0.00 43 1017.9
20181215141455 46 0 2.0 5.0 0.00 0.00 0.00 44 1018.0
20181215141004 46 355 3.0 5.0 0.00 0.00 0.00 44 1018.0
20181215140454 45 346 2.0 4.0 0.00 0.00 0.00 45 1018.0
20181215135954 45 0 1.0 3.0 0.00 0.00 0.00 47 1017.9
20181215135455 45 0 3.0 5.0 0.00 0.00 0.00 48 1018.0
20181215134952 45 5 3.0 5.0 0.00 0.00 0.00 48 1018.0
20181215134456 45 351 3.0 5.0 0.00 0.00 0.00 48 1018.0
20181215133950 45 0 2.0 5.0 0.00 0.00 0.00 49 1018.0
20181215133450 45 0 2.0 5.0 0.00 0.00 0.00 47 1018.1
20181215132951 45 12 2.0 4.0 0.00 0.00 0.00 48 1018.0
20181215132450 45 5 2.0 4.0 0.00 0.00 0.00 48 1018.1
20181215131950 45 0 2.0 3.0 0.00 0.00 0.00 49 1018.0
20181215131448 45 0 2.0 3.0 0.00 0.00 0.00 48 1018.0
20181215130949 45 0 2.0 3.0 0.00 0.00 0.00 48 1018.1
20181215130445 45 0 2.0 4.0 0.00 0.00 0.00 48 1018.1
20181215125951 46 348 1.0 2.0 0.00 0.00 0.00 48 1018.1
20181215125947 45 351 1.0 4.0 0.00 0.00 0.00 48 1018.1
20181215124947 46 350 1.0 2.0 0.00 0.00 0.00 47 1018.1
20181215124445 46 329 0.0 0.0 0.00 0.00 0.00 47 1018.1
20181215123943 46 271 0.0 2.0 0.00 0.00 0.00 45 1018.0
20181215123444 47 263 1.0 2.0 0.00 0.00 0.00 46 1018.1
20181215122944 47 0 1.0 3.0 0.00 0.00 0.00 44 1018.1
20181215122448 47 0 1.0 3.0 0.00 0.00 0.00 43 1018.1
20181215122443 47 0 1.0 3.0 0.00 0.00 0.00 44 1018.1
20181215121944 48 5 1.0 3.0 0.00 0.00 0.00 44 1018.1
20181215120940 48 0 1.0 3.0 0.00 0.00 0.00 43 1018.2
20181215120440 48 355 2.0 4.0 0.00 0.00 0.00 43 1018.1
20181215115939 48 349 1.0 4.0 0.00 0.00 0.00 43 1018.1
20181215115440 48 5 0.0 2.0 0.00 0.00 0.00 44 1018.1
20181215114945 49 9 0.0 2.0 0.00 0.00 0.00 44 1018.2
20181215114941 48 5 0.0 2.0 0.00 0.00 0.00 44 1018.2
20181215113944 49 9 1.0 3.0 0.00 0.00 0.00 43 1018.3
20181215113940 49 14 1.0 3.0 0.00 0.00 0.00 43 1018.2
20181215113440 49 0 1.0 3.0 0.00 0.00 0.00 44 1018.4
20181215112441 49 0 1.0 4.0 0.00 0.00 0.00 44 1018.5
20181215111939 48 24 1.0 4.0 0.00 0.00 0.00 44 1018.6
20181215111440 48 26 0.0 4.0 0.00 0.00 0.00 45 1018.7
20181215110941 48 30 0.0 2.0 0.00 0.00 0.00 45 1018.9
20181215110446 48 27 0.0 2.0 0.00 0.00 0.00 46 1018.9
20181215105940 48 29 0.0 1.0 0.00 0.00 0.00 45 1019.0
20181215105445 48 27 0.0 1.0 0.00 0.00 0.00 44 1019.2
20181215105440 48 27 0.0 1.0 0.00 0.00 0.00 45 1019.0
20181215104439 47 27 0.0 2.0 0.00 0.00 0.00 45 1019.2
20181215103940 47 38 0.0 2.0 0.00 0.00 0.00 45 1019.0
20181215103442 47 46 0.0 2.0 0.00 0.00 0.00 44 1019.0
20181215102939 47 36 0.0 2.0 0.00 0.00 0.00 44 1019.0
20181215102440 47 17 0.0 1.0 0.00 0.00 0.00 44 1019.2
20181215101938 47 0 0.0 1.0 0.00 0.00 0.00 45 1019.2
20181215101437 47 32 0.0 3.0 0.00 0.00 0.00 44 1019.3
20181215100939 47 0 0.0 3.0 0.00 0.00 0.00 44 1019.3
20181215100437 48 29 0.0 3.0 0.00 0.00 0.00 44 1019.4
20181215095938 48 29 1.0 3.0 0.00 0.00 0.00 43 1019.2
20181215095437 48 0 1.0 3.0 0.00 0.00 0.00 43 1019.2
20181215094938 48 5 0.0 2.0 0.00 0.00 0.00 44 1019.0
20181215094442 48 45 1.0 4.0 0.00 0.00 0.00 42 1019.2
20181215094437 48 42 1.0 4.0 0.00 0.00 0.00 43 1019.2
20181215093437 48 34 1.0 3.0 0.00 0.00 0.00 43 1019.3
20181215092938 49 17 1.0 3.0 0.00 0.00 0.00 44 1019.4
20181215092437 49 22 1.0 3.0 0.00 0.00 0.00 44 1019.4
20181215091937 49 23 1.0 3.0 0.00 0.00 0.00 43 1019.4
20181215091437 50 350 1.0 3.0 0.00 0.00 0.00 43 1019.5
20181215090937 50 52 1.0 4.0 0.00 0.00 0.00 43 1019.4
20181215090437 50 53 1.0 4.0 0.00 0.00 0.00 39 1019.3
20181215085938 50 18 0.0 1.0 0.00 0.00 0.00 44 1019.4
20181215085441 50 15 1.0 3.0 0.00 0.00 0.00 43 1019.4
20181215085435 51 12 0.0 3.0 0.00 0.00 0.00 41 1019.5
20181215084435 51 348 0.0 2.0 0.00 0.00 0.00 39 1019.5
20181215083936 51 346 0.0 2.0 0.00 0.00 0.00 38 1019.5
20181215083436 51 355 1.0 2.0 0.00 0.00 0.00 40 1019.4
20181215082935 51 17 2.0 3.0 0.00 0.00 0.00 37 1019.4
20181215082440 51 351 1.0 4.0 0.00 0.00 0.00 38 1019.3
20181215082436 51 0 2.0 3.0 0.00 0.00 0.00 38 1019.4
20181215081435 52 0 1.0 4.0 0.00 0.00 0.00 38 1019.3
20181215080935 52 0 2.0 4.0 0.00 0.00 0.00 39 1019.3
20181215080436 52 5 1.0 4.0 0.00 0.00 0.00 38 1019.4
20181215075935 52 5 0.0 3.0 0.00 0.00 0.00 39 1019.4
20181215075434 52 5 1.0 3.0 0.00 0.00 0.00 39 1019.5
20181215074933 53 0 1.0 3.0 0.00 0.00 0.00 39 1019.6
20181215074433 53 0 0.0 3.0 0.00 0.00 0.00 40 1019.8
20181215073932 53 17 0.0 2.0 0.00 0.00 0.00 38 1019.8
20181215073433 53 10 1.0 4.0 0.00 0.00 0.00 39 1019.9
20181215072934 53 5 2.0 4.0 0.00 0.00 0.00 37 1020.0
20181215072438 53 34 0.0 3.0 0.00 0.00 0.00 40 1020.0
20181215072434 53 349 1.0 4.0 0.00 0.00 0.00 38 1020.1
20181215071433 54 53 1.0 4.0 0.00 0.00 0.00 37 1020.0
20181215070932 54 26 2.0 4.0 0.00 0.00 0.00 36 1020.2
20181215070434 54 0 1.0 4.0 0.00 0.00 0.00 38 1020.2
20181215065934 54 74 0.0 2.0 0.00 0.00 0.00 38 1020.2
20181215065430 54 86 0.0 1.0 0.00 0.00 0.00 36 1020.2
20181215064931 54 5 0.0 1.0 0.00 0.00 0.00 35 1020.4
20181215064429 54 13 1.0 7.0 0.00 0.00 0.00 37 1020.2
20181215063928 54 70 2.0 7.0 0.00 0.00 0.00 35 1020.0
20181215063426 54 67 2.0 6.0 0.00 0.00 0.00 34 1020.0
20181215062927 54 71 2.0 4.0 0.00 0.00 0.00 36 1020.1
20181215062427 54 355 2.0 4.0 0.00 0.00 0.00 36 1020.2
20181215061927 54 61 1.0 4.0 0.00 0.00 0.00 38 1020.2
20181215061425 54 86 1.0 4.0 0.00 0.00 0.00 35 1020.2
20181215060922 53 123 1.0 3.0 0.00 0.00 0.00 38 1020.2
20181215060422 53 37 0.0 3.0 0.00 0.00 0.00 40 1020.2
20181215055922 53 29 0.0 3.0 0.00 0.00 0.00 40 1020.2
20181215055422 53 59 0.0 2.0 0.00 0.00 0.00 40 1020.2
20181215054922 53 57 1.0 4.0 0.00 0.00 0.00 39 1020.1
20181215054422 53 49 2.0 4.0 0.00 0.00 0.00 37 1020.1
20181215053920 53 11 2.0 4.0 0.00 0.00 0.00 43 1020.3
20181215053420 53 0 0.0 3.0 0.00 0.00 0.00 45 1020.3
20181215052919 53 12 0.0 2.0 0.00 0.00 0.00 46 1020.3
20181215052420 53 22 1.0 3.0 0.00 0.00 0.00 43 1020.3
20181215052415 53 346 1.0 3.0 0.00 0.00 0.00 43 1020.4
20181215051414 53 346 1.0 2.0 0.00 0.00 0.00 45 1020.5
20181215050914 53 345 2.0 4.0 0.00 0.00 0.00 44 1020.5
20181215050415 52 348 2.0 4.0 0.00 0.00 0.00 44 1020.5
20181215045915 52 347 1.0 4.0 0.00 0.00 0.00 45 1020.5
20181215045415 52 5 1.0 2.0 0.00 0.00 0.00 47 1020.5
20181215044916 52 35 0.0 2.0 0.00 0.00 0.00 46 1020.4
20181215044414 53 14 0.0 2.0 0.00 0.00 0.00 47 1020.6
20181215043915 53 14 0.0 2.0 0.00 0.00 0.00 46 1020.6
20181215043413 53 14 0.0 0.0 0.00 0.00 0.00 46 1020.6
20181215042912 53 14 0.0 0.0 0.00 0.00 0.00 45 1020.5
20181215042413 53 14 0.0 0.0 0.00 0.00 0.00 44 1020.5
20181215041913 53 14 0.0 2.0 0.00 0.00 0.00 44 1020.5
20181215041418 53 355 2.0 3.0 0.00 0.00 0.00 41 1020.5
20181215041413 53 14 1.0 3.0 0.00 0.00 0.00 42 1020.5
20181215040412 53 350 1.0 3.0 0.00 0.00 0.00 44 1020.4
20181215035913 53 30 1.0 3.0 0.00 0.00 0.00 41 1020.4
20181215035412 53 0 2.0 4.0 0.00 0.00 0.00 43 1020.5
20181215034912 53 18 2.0 4.0 0.00 0.00 0.00 44 1020.5
20181215034411 53 0 1.0 4.0 0.00 0.00 0.00 44 1020.5
20181215033911 54 9 0.0 3.0 0.00 0.00 0.00 45 1020.4
20181215033411 54 5 1.0 3.0 0.00 0.00 0.00 43 1020.4
20181215032911 54 0 1.0 3.0 0.00 0.00 0.00 42 1020.4
20181215032411 54 0 1.0 2.0 0.00 0.00 0.00 42 1020.4
20181215031911 54 0 0.0 2.0 0.00 0.00 0.00 42 1020.4
20181215031410 53 0 0.0 2.0 0.00 0.00 0.00 42 1020.3
20181215030910 53 54 0.0 2.0 0.00 0.00 0.00 41 1020.2
20181215030411 53 61 0.0 3.0 0.00 0.00 0.00 45 1020.2
20181215025911 53 61 1.0 4.0 0.00 0.00 0.00 44 1020.1
20181215025409 53 36 1.0 4.0 0.00 0.00 0.00 44 1020.1
20181215024908 53 42 0.0 3.0 0.00 0.00 0.00 45 1020.3
20181215024407 53 0 1.0 3.0 0.00 0.00 0.00 47 1020.3
20181215023907 53 0 1.0 4.0 0.00 0.00 0.00 46 1020.3
20181215023405 53 0 2.0 4.0 0.00 0.00 0.00 48 1020.4
20181215022906 53 5 2.0 3.0 0.00 0.00 0.00 49 1020.3
20181215022405 53 5 1.0 3.0 0.00 0.00 0.00 51 1020.4
20181215021906 53 25 1.0 3.0 0.00 0.00 0.00 50 1020.3
20181215021406 53 32 2.0 4.0 0.00 0.00 0.00 50 1020.3
20181215020907 53 0 3.0 4.0 0.00 0.00 0.00 50 1020.4
20181215020406 53 0 2.0 3.0 0.00 0.00 0.00 52 1020.4
20181215015907 53 5 1.0 2.0 0.00 0.00 0.00 52 1020.4
20181215015406 53 5 2.0 3.0 0.00 0.00 0.00 50 1020.4
20181215014904 53 350 2.0 3.0 0.00 0.00 0.00 50 1020.4
20181215014405 53 345 1.0 3.0 0.00 0.00 0.00 51 1020.5
20181215013905 53 344 1.0 2.0 0.00 0.00 0.00 53 1020.4
20181215013401 53 0 1.0 3.0 0.00 0.00 0.00 51 1020.3
20181215012902 53 0 2.0 3.0 0.00 0.00 0.00 51 1020.4
20181215012402 53 351 2.0 3.0 0.00 0.00 0.00 52 1020.3
20181215011901 54 0 2.0 3.0 0.00 0.00 0.00 53 1020.2
20181215011405 54 9 0.0 0.0 0.00 0.00 0.00 56 1020.1
20181215011401 54 355 1.0 3.0 0.00 0.00 0.00 55 1020.1
20181215010359 54 54 0.0 0.0 0.00 0.00 0.00 58 1020.0
20181215005900 55 55 0.0 0.0 0.00 0.00 0.00 56 1019.9
20181215005400 55 55 0.0 0.0 0.00 0.00 0.00 55 1019.8
20181215004900 55 55 0.0 0.0 0.00 0.00 0.00 56 1019.7
20181215004401 56 87 0.0 0.0 0.00 0.00 0.00 57 1019.7
20181215003900 56 78 0.0 0.0 0.00 0.00 0.00 57 1019.8
20181215003401 56 119 0.0 0.0 0.00 0.00 0.00 60 1019.8
20181215002859 57 112 0.0 0.0 0.00 0.00 0.00 58 1019.8
20181215002357 57 112 0.0 0.0 0.00 0.00 0.00 59 1019.8
20181215001859 58 112 0.0 0.0 0.00 0.00 0.00 57 1019.8
20181215001358 58 112 0.0 0.0 0.00 0.00 0.00 56 1019.9
20181215000857 58 112 0.0 0.0 0.00 0.00 0.00 55 1020.0
20181215000359 59 112 0.0 0.0 0.00 0.00 0.00 56 1019.9
20181214235859 59 112 0.0 0.0 0.00 0.00 0.00 53 1019.9
20181214235358 60 112 0.0 0.0 0.00 0.00 0.00 52 1020.0
20181214234859 60 112 0.0 0.0 0.00 0.00 0.00 54 1020.1
20181214234359 60 112 0.0 0.0 0.00 0.00 0.00 52 1020.1
20181214233856 60 112 0.0 0.0 0.00 0.00 0.00 52 1020.0
20181214233356 60 112 0.0 0.0 0.00 0.00 0.00 50 1019.9
20181214232855 60 112 0.0 0.0 0.00 0.00 0.00 51 1019.9
20181214232357 61 112 0.0 0.0 0.00 0.00 0.00 48 1019.9
20181214231855 62 112 0.0 0.0 0.00 0.00 0.00 48 1019.9
20181214231355 62 112 0.0 0.0 0.00 0.00 0.00 47 1019.9
20181214230856 62 112 0.0 0.0 0.00 0.00 0.00 48 1019.8
20181214230355 63 112 0.0 0.0 0.00 0.00 0.00 45 1019.8
20181214225856 63 112 0.0 0.0 0.00 0.00 0.00 42 1019.8
20181214225355 63 112 0.0 0.0 0.00 0.00 0.00 38 1019.8
20181214224853 63 112 0.0 0.0 0.00 0.00 0.00 41 1019.8
20181214224354 63 112 0.0 0.0 0.00 0.00 0.00 41 1019.8
20181214223855 63 113 0.0 0.0 0.00 0.00 0.00 41 1019.9
20181214223354 63 113 0.0 0.0 0.00 0.00 0.00 34 1020.0
20181214222851 63 113 0.0 0.0 0.00 0.00 0.00 37 1020.0
20181214222351 63 113 0.0 0.0 0.00 0.00 0.00 37 1020.1
20181214221851 63 113 0.0 1.0 0.00 0.00 0.00 36 1020.1
20181214221352 63 113 0.0 1.0 0.00 0.00 0.00 34 1020.0
20181214220851 62 131 0.0 0.0 0.00 0.00 0.00 36 1020.0
20181214220351 62 131 0.0 0.0 0.00 0.00 0.00 41 1020.0
20181214215851 62 131 0.0 0.0 0.00 0.00 0.00 39 1020.0
20181214215351 62 131 0.0 0.0 0.00 0.00 0.00 42 1020.0
20181214214851 62 148 0.0 0.0 0.00 0.00 0.00 43 1020.0
20181214214350 62 146 0.0 0.0 0.00 0.00 0.00 50 1019.9
20181214213850 62 77 0.0 0.0 0.00 0.00 0.00 49 1019.8
20181214213350 62 77 0.0 0.0 0.00 0.00 0.00 49 1019.8
20181214212850 62 77 0.0 0.0 0.00 0.00 0.00 49 1020.1
20181214212349 62 77 0.0 0.0 0.00 0.00 0.00 46 1020.1
20181214211850 62 77 0.0 0.0 0.00 0.00 0.00 45 1020.2
20181214211349 62 77 0.0 0.0 0.00 0.00 0.00 46 1020.3
20181214210849 62 77 0.0 0.0 0.00 0.00 0.00 44 1020.3
20181214210354 62 77 0.0 0.0 0.00 0.00 0.00 38 1020.4
20181214210350 62 77 0.0 0.0 0.00 0.00 0.00 44 1020.3
20181214205348 62 77 0.0 0.0 0.00 0.00 0.00 41 1020.3
20181214204848 62 77 0.0 0.0 0.00 0.00 0.00 39 1020.5
20181214204347 61 77 0.0 0.0 0.00 0.00 0.00 36 1020.5
20181214203847 61 77 0.0 1.0 0.00 0.00 0.00 35 1020.6
20181214203347 61 77 0.0 3.0 0.00 0.00 0.00 34 1020.6
20181214202847 61 76 1.0 3.0 0.00 0.00 0.00 32 1020.7
20181214202348 62 88 1.0 4.0 0.00 0.00 0.00 31 1020.7
20181214201847 62 82 1.0 4.0 0.00 0.00 0.00 31 1020.8
20181214201347 62 110 0.0 4.0 0.00 0.00 0.00 31 1020.9
20181214200847 62 119 1.0 3.0 0.00 0.00 0.00 36 1020.9
20181214200345 62 115 1.0 4.0 0.00 0.00 0.00 33 1021.0
20181214195846 62 106 1.0 4.0 0.00 0.00 0.00 38 1021.2
20181214195344 62 102 1.0 4.0 0.00 0.00 0.00 42 1021.2
20181214194845 62 142 0.0 0.0 0.00 0.00 0.00 45 1021.3
20181214194347 63 142 0.0 2.0 0.00 0.00 0.00 45 1021.5
20181214193845 63 142 0.0 2.0 0.00 0.00 0.00 42 1021.5
20181214193345 62 171 0.0 2.0 0.00 0.00 0.00 45 1021.4
20181214192845 62 34 0.0 0.0 0.00 0.00 0.00 49 1021.4
20181214192345 62 33 0.0 0.0 0.00 0.00 0.00 43 1021.4
20181214191845 61 34 0.0 0.0 0.00 0.00 0.00 51 1021.5
20181214191344 61 43 0.0 0.0 0.00 0.00 0.00 48 1021.6
20181214190849 61 43 0.0 0.0 0.00 0.00 0.00 50 1021.8
20181214190343 61 24 0.0 0.0 0.00 0.00 0.00 51 1021.9
20181214185844 61 24 0.0 0.0 0.00 0.00 0.00 49 1022.1
20181214185342 60 24 0.0 0.0 0.00 0.00 0.00 48 1022.2
20181214184844 60 24 0.0 0.0 0.00 0.00 0.00 53 1022.2
20181214184344 60 22 0.0 0.0 0.00 0.00 0.00 52 1022.4
20181214183843 60 22 0.0 0.0 0.00 0.00 0.00 47 1022.6
20181214183344 60 132 0.0 2.0 0.00 0.00 0.00 44 1022.5
20181214182840 60 133 0.0 2.0 0.00 0.00 0.00 51 1022.7
20181214182340 60 34 0.0 0.0 0.00 0.00 0.00 50 1022.7
20181214181842 60 35 0.0 0.0 0.00 0.00 0.00 49 1022.8
20181214181341 60 350 0.0 0.0 0.00 0.00 0.00 49 1022.9
20181214180841 59 350 0.0 0.0 0.00 0.00 0.00 50 1023.0
20181214180340 59 350 0.0 0.0 0.00 0.00 0.00 51 1023.0
20181214175842 58 350 0.0 0.0 0.00 0.00 0.00 53 1023.0
20181214175339 58 350 0.0 0.0 0.00 0.00 0.00 52 1023.0
20181214174838 57 350 0.0 0.0 0.00 0.00 0.00 55 1023.0
20181214174340 57 350 0.0 2.0 0.00 0.00 0.00 49 1023.0
20181214173839 56 350 0.0 2.0 0.00 0.00 0.00 51 1023.0
20181214173339 56 350 1.0 3.0 0.00 0.00 0.00 53 1022.9
20181214172839 56 350 1.0 3.0 0.00 0.00 0.00 56 1022.8
20181214172340 55 11 0.0 0.0 0.00 0.00 0.00 57 1022.7
20181214171838 55 11 0.0 0.0 0.00 0.00 0.00 59 1022.7
20181214171339 55 11 0.0 0.0 0.00 0.00 0.00 58 1022.7
20181214170839 54 11 0.0 0.0 0.00 0.00 0.00 57 1022.7
20181214170339 54 11 0.0 0.0 0.00 0.00 0.00 58 1022.8
20181214165844 53 11 0.0 0.0 0.00 0.00 0.00 58 1022.7
20181214165839 54 11 0.0 0.0 0.00 0.00 0.00 56 1022.7
20181214164839 53 11 0.0 0.0 0.00 0.00 0.00 58 1022.8
20181214164344 53 11 0.0 0.0 0.00 0.00 0.00 55 1022.8
20181214164339 53 11 0.0 0.0 0.00 0.00 0.00 56 1022.8
20181214163338 52 11 0.0 0.0 0.00 0.00 0.00 52 1022.9
20181214162840 52 12 0.0 1.0 0.00 0.00 0.00 53 1022.9
20181214162339 52 12 0.0 1.0 0.00 0.00 0.00 52 1022.8